Time,TemperatureF,DewpointF,PressureIn,WindDirection,WindDirectionDegrees,WindSpeedMPH,WindSpeedGustMPH,Humidity,HourlyPrecipIn,Conditions,Clouds,dailyrainin,SolarRadiationWatts/m^2,SoftwareType,DateUTC
2015-05-06 00:02:00,49.6,48.7,29.57,NE,55,8.0,-999.9,97,-99.99,,,0.00,0.0,meteohub,2015-05-06 05:02:00,
2015-05-06 00:07:00,49.8,48.9,29.57,ENE,61,2.0,-999.9,97,-99.99,,,0.00,0.0,meteohub,2015-05-06 05:07:00,
2015-05-06 00:12:00,50.4,49.5,29.57,ENE,61,4.0,-999.9,97,-99.99,,,0.00,0.0,meteohub,2015-05-06 05:12:00,
2015-05-06 00:17:00,50.4,49.5,29.57,NE,52,2.0,-999.9,97,-99.99,,,0.00,0.0,meteohub,2015-05-06 05:17:00,
2015-05-06 00:22:00,50.5,49.6,29.57,NE,51,3.0,-999.9,97,-99.99,,,0.00,0.0,meteohub,2015-05-06 05:22:00,
2015-05-06 00:27:00,50.9,50.0,29.57,NE,48,4.0,-999.9,97,-99.99,,,0.00,0.0,meteohub,2015-05-06 05:27:00,
2015-05-06 00:32:00,51.3,50.4,29.57,NE,48,4.0,-999.9,97,-99.99,,,0.00,0.0,meteohub,2015-05-06 05:32:00,
2015-05-06 00:37:00,51.4,50.5,29.57,NE,48,0.0,-999.9,97,-99.99,,,0.00,0.0,meteohub,2015-05-06 05:37:00,
2015-05-06 00:42:00,51.4,50.5,29.57,NE,48,2.0,-999.9,97,-99.99,,,0.00,0.0,meteohub,2015-05-06 05:42:00,
2015-05-06 00:47:00,51.6,50.7,29.57,NE,48,2.0,-999.9,97,-99.99,,,0.00,0.0,meteohub,2015-05-06 05:47:00,
2015-05-06 00:52:00,52.0,51.1,29.57,NE,48,1.0,-999.9,97,-99.99,,,0.00,0.0,meteohub,2015-05-06 05:52:00,
2015-05-06 00:57:00,52.0,51.1,29.56,NE,43,5.0,-999.9,97,-99.99,,,0.00,0.0,meteohub,2015-05-06 05:57:00,
2015-05-06 01:02:00,51.6,50.7,29.57,NNE,32,6.0,-999.9,97,-99.99,,,0.00,0.0,meteohub,2015-05-06 06:02:00,
2015-05-06 01:07:00,51.8,50.9,29.57,NNE,33,4.0,-999.9,97,-99.99,,,0.00,0.0,meteohub,2015-05-06 06:07:00,
2015-05-06 01:12:00,52.2,51.3,29.56,NE,34,3.0,-999.9,97,-99.99,,,0.00,0.0,meteohub,2015-05-06 06:12:00,
2015-05-06 01:17:00,52.0,51.1,29.56,NE,37,4.0,-999.9,97,-99.99,,,0.00,0.0,meteohub,2015-05-06 06:17:00,
2015-05-06 01:22:00,51.6,50.7,29.57,NE,37,3.0,-999.9,97,-99.99,,,0.00,0.0,meteohub,2015-05-06 06:22:00,
2015-05-06 01:27:00,52.0,51.1,29.56,NE,37,4.0,-999.9,97,-99.99,,,0.00,0.0,meteohub,2015-05-06 06:27:00,
2015-05-06 01:32:00,51.8,50.9,29.56,NE,37,2.0,-999.9,97,-99.99,,,0.00,0.0,meteohub,2015-05-06 06:32:00,
2015-05-06 01:37:00,51.6,50.7,29.56,NE,38,4.0,-999.9,97,-99.99,,,0.00,0.0,meteohub,2015-05-06 06:37:00,
2015-05-06 01:42:00,51.6,50.7,29.56,NE,38,4.0,-999.9,97,-99.99,,,0.00,0.0,meteohub,2015-05-06 06:42:00,
2015-05-06 01:47:00,51.6,50.7,29.55,NE,38,4.0,-999.9,97,-99.99,,,0.00,0.0,meteohub,2015-05-06 06:47:00,
2015-05-06 01:52:00,51.4,50.5,29.56,NE,40,4.0,-999.9,97,-99.99,,,0.00,0.0,meteohub,2015-05-06 06:52:00,
2015-05-06 01:57:00,51.3,50.4,29.56,NE,40,0.0,-999.9,97,-99.99,,,0.00,0.0,meteohub,2015-05-06 06:57:00,
2015-05-06 02:02:00,51.1,50.2,29.56,NE,40,0.0,-999.9,97,-99.99,,,0.00,0.0,meteohub,2015-05-06 07:02:00,
2015-05-06 02:07:00,50.9,50.0,29.56,NE,40,0.0,-999.9,97,-99.99,,,0.00,0.0,meteohub,2015-05-06 07:07:00,
2015-05-06 02:12:00,50.7,49.8,29.56,NE,40,3.0,-999.9,97,-99.99,,,0.00,0.0,meteohub,2015-05-06 07:12:00,
2015-05-06 02:17:00,50.7,49.8,29.56,NE,40,0.0,-999.9,97,-99.99,,,0.00,0.0,meteohub,2015-05-06 07:17:00,
2015-05-06 02:22:00,50.5,49.6,29.56,NE,40,0.0,-999.9,97,-99.99,,,0.00,0.0,meteohub,2015-05-06 07:22:00,
2015-05-06 02:27:00,50.5,49.6,29.56,NE,40,0.0,-999.9,97,-99.99,,,0.00,0.0,meteohub,2015-05-06 07:27:00,
2015-05-06 02:32:00,50.5,49.6,29.56,NE,40,3.0,-999.9,97,-99.99,,,0.00,0.0,meteohub,2015-05-06 07:32:00,
2015-05-06 02:37:00,50.4,49.5,29.56,NE,40,0.0,-999.9,97,-99.99,,,0.00,0.0,meteohub,2015-05-06 07:37:00,
2015-05-06 02:42:00,50.2,49.3,29.55,NE,40,0.0,-999.9,97,-99.99,,,0.00,0.0,meteohub,2015-05-06 07:42:00,
2015-05-06 02:47:00,49.8,48.9,29.55,NE,40,2.0,-999.9,97,-99.99,,,0.00,0.0,meteohub,2015-05-06 07:47:00,
2015-05-06 02:52:00,49.5,48.6,29.55,NE,40,0.0,-999.9,97,-99.99,,,0.00,0.0,meteohub,2015-05-06 07:52:00,
2015-05-06 02:57:00,49.5,48.6,29.55,NE,40,0.0,-999.9,97,-99.99,,,0.00,0.0,meteohub,2015-05-06 07:57:00,
2015-05-06 03:02:00,49.5,48.6,29.55,NE,40,0.0,-999.9,97,-99.99,,,0.00,0.0,meteohub,2015-05-06 08:02:00,
2015-05-06 03:07:00,49.1,48.2,29.55,NE,40,0.0,-999.9,97,-99.99,,,0.00,0.0,meteohub,2015-05-06 08:07:00,
2015-05-06 03:12:00,48.7,47.8,29.55,NE,40,0.0,-999.9,97,-99.99,,,0.00,0.0,meteohub,2015-05-06 08:12:00,
2015-05-06 03:17:00,48.6,47.7,29.55,NE,40,0.0,-999.9,97,-99.99,,,0.00,0.0,meteohub,2015-05-06 08:17:00,
2015-05-06 03:22:00,48.6,47.7,29.55,NE,40,0.0,-999.9,97,-99.99,,,0.00,0.0,meteohub,2015-05-06 08:22:00,
2015-05-06 03:27:00,48.6,47.7,29.56,NE,40,0.0,-999.9,97,-99.99,,,0.00,0.0,meteohub,2015-05-06 08:27:00,
2015-05-06 03:32:00,48.6,47.7,29.55,NE,40,0.0,-999.9,97,-99.99,,,0.00,0.0,meteohub,2015-05-06 08:32:00,
2015-05-06 03:37:00,48.9,48.0,29.55,NE,40,3.0,-999.9,97,-99.99,,,0.00,0.0,meteohub,2015-05-06 08:37:00,
2015-05-06 03:42:00,49.8,48.9,29.55,NE,40,0.0,-999.9,97,-99.99,,,0.00,0.0,meteohub,2015-05-06 08:42:00,
2015-05-06 03:47:00,49.6,48.7,29.55,NE,40,0.0,-999.9,97,-99.99,,,0.00,0.0,meteohub,2015-05-06 08:47:00,
2015-05-06 03:52:00,49.8,48.9,29.55,NE,40,0.0,-999.9,97,-99.99,,,0.00,0.0,meteohub,2015-05-06 08:52:00,
2015-05-06 03:57:00,50.4,49.8,29.55,NE,40,0.0,-999.9,98,-99.99,,,0.00,0.0,meteohub,2015-05-06 08:57:00,
2015-05-06 04:02:00,50.5,50.0,29.55,NE,40,0.0,-999.9,98,-99.99,,,0.00,0.0,meteohub,2015-05-06 09:02:00,
2015-05-06 04:07:00,51.3,50.7,29.55,NE,40,1.0,-999.9,98,-99.99,,,0.00,0.0,meteohub,2015-05-06 09:07:00,
2015-05-06 04:12:00,51.3,50.4,29.55,NE,40,0.0,-999.9,97,-99.99,,,0.00,0.0,meteohub,2015-05-06 09:12:00,
2015-05-06 04:17:00,51.3,50.4,29.55,NE,40,1.0,-999.9,97,-99.99,,,0.00,0.0,meteohub,2015-05-06 09:17:00,
2015-05-06 04:22:00,51.3,50.4,29.55,NE,40,0.0,-999.9,97,-99.99,,,0.00,0.0,meteohub,2015-05-06 09:22:00,
2015-05-06 04:27:00,51.3,50.4,29.55,NE,40,0.0,-999.9,97,-99.99,,,0.00,0.0,meteohub,2015-05-06 09:27:00,
2015-05-06 04:32:00,51.1,50.2,29.55,NE,40,0.0,-999.9,97,-99.99,,,0.00,0.0,meteohub,2015-05-06 09:32:00,
2015-05-06 04:37:00,51.3,50.4,29.54,NE,40,0.0,-999.9,97,-99.99,,,0.00,0.0,meteohub,2015-05-06 09:37:00,
2015-05-06 04:42:00,51.4,50.5,29.54,NE,40,0.0,-999.9,97,-99.99,,,0.00,0.0,meteohub,2015-05-06 09:42:00,
2015-05-06 04:47:00,51.4,50.5,29.54,NE,40,0.0,-999.9,97,-99.99,,,0.00,0.0,meteohub,2015-05-06 09:47:00,
2015-05-06 04:52:00,51.6,51.1,29.55,NE,40,1.0,-999.9,98,-99.99,,,0.00,0.0,meteohub,2015-05-06 09:52:00,
2015-05-06 04:57:00,51.8,51.3,29.54,NE,40,3.0,-999.9,98,-99.99,,,0.00,0.0,meteohub,2015-05-06 09:57:00,
2015-05-06 05:02:00,52.3,51.8,29.54,NE,40,4.0,-999.9,98,-99.99,,,0.00,0.0,meteohub,2015-05-06 10:02:00,
2015-05-06 05:07:00,52.3,51.8,29.53,NE,40,1.0,-999.9,98,-99.99,,,0.00,0.0,meteohub,2015-05-06 10:07:00,
2015-05-06 05:12:00,52.3,51.8,29.53,NE,40,1.0,-999.9,98,-99.99,,,0.00,0.0,meteohub,2015-05-06 10:12:00,
2015-05-06 05:17:00,52.3,51.8,29.54,NE,40,0.0,-999.9,98,-99.99,,,0.00,0.0,meteohub,2015-05-06 10:17:00,
2015-05-06 05:22:00,52.2,51.6,29.53,NE,40,2.0,-999.9,98,-99.99,,,0.00,0.0,meteohub,2015-05-06 10:22:00,
2015-05-06 05:27:00,52.2,51.3,29.53,NE,40,0.0,-999.9,97,-99.99,,,0.00,0.0,meteohub,2015-05-06 10:27:00,
2015-05-06 05:32:00,52.2,51.6,29.53,NE,40,0.0,-999.9,98,-99.99,,,0.00,0.0,meteohub,2015-05-06 10:32:00,
2015-05-06 05:37:00,52.0,51.1,29.53,NE,40,0.0,-999.9,97,-99.99,,,0.00,0.0,meteohub,2015-05-06 10:37:00,
2015-05-06 05:42:00,52.0,51.1,29.54,NE,40,0.0,-999.9,97,-99.99,,,0.00,0.0,meteohub,2015-05-06 10:42:00,
2015-05-06 05:47:00,52.0,51.4,29.54,NE,40,0.0,-999.9,98,-99.99,,,0.00,0.0,meteohub,2015-05-06 10:47:00,
2015-05-06 05:52:00,52.0,51.4,29.53,East,93,6.0,-999.9,98,-99.99,,,0.00,0.0,meteohub,2015-05-06 10:52:00,
2015-05-06 05:57:00,51.6,51.1,29.53,East,98,0.0,-999.9,98,-99.99,,,0.00,5.0,meteohub,2015-05-06 10:57:00,
2015-05-06 06:02:00,51.6,51.1,29.54,East,98,0.0,-999.9,98,-99.99,,,0.00,7.0,meteohub,2015-05-06 11:02:00,
2015-05-06 06:07:00,51.4,50.5,29.54,East,98,0.0,-999.9,97,-99.99,,,0.00,9.0,meteohub,2015-05-06 11:07:00,
2015-05-06 06:13:00,51.4,50.5,29.54,East,98,0.0,-999.9,97,-99.99,,,0.00,12.0,meteohub,2015-05-06 11:13:00,
2015-05-06 06:19:00,51.6,51.1,29.54,East,98,1.0,-999.9,98,-99.99,,,0.00,18.0,meteohub,2015-05-06 11:19:00,
2015-05-06 06:24:00,52.0,51.4,29.54,East,98,0.0,-999.9,98,-99.99,,,0.00,23.0,meteohub,2015-05-06 11:24:00,
2015-05-06 06:30:00,52.2,51.6,29.55,East,98,0.0,-999.9,98,-99.99,,,0.00,21.0,meteohub,2015-05-06 11:30:00,
2015-05-06 06:36:00,52.5,52.0,29.54,East,98,0.0,-999.9,98,-99.99,,,0.00,26.0,meteohub,2015-05-06 11:36:00,
2015-05-06 06:42:00,52.9,52.3,29.54,East,98,0.0,-999.9,98,-99.99,,,0.00,26.0,meteohub,2015-05-06 11:42:00,
2015-05-06 06:47:00,53.1,52.5,29.55,East,98,0.0,-999.9,98,-99.99,,,0.00,26.0,meteohub,2015-05-06 11:47:00,
2015-05-06 06:53:00,53.4,52.9,29.55,East,98,0.0,-999.9,98,-99.99,,,0.00,28.0,meteohub,2015-05-06 11:53:00,
2015-05-06 06:59:00,53.4,52.9,29.54,East,98,0.0,-999.9,98,-99.99,,,0.00,35.0,meteohub,2015-05-06 11:59:00,
2015-05-06 07:04:00,53.2,52.7,29.55,ESE,102,0.0,-999.9,98,-99.99,,,0.00,39.0,meteohub,2015-05-06 12:04:00,
2015-05-06 07:10:00,53.2,52.7,29.55,ESE,102,0.0,-999.9,98,-99.99,,,0.00,47.0,meteohub,2015-05-06 12:10:00,
2015-05-06 07:16:00,53.6,53.1,29.55,ESE,109,2.0,-999.9,98,-99.99,,,0.00,56.0,meteohub,2015-05-06 12:16:00,
2015-05-06 07:22:00,54.0,53.4,29.55,ESE,110,0.0,-999.9,98,-99.99,,,0.00,54.0,meteohub,2015-05-06 12:22:00,
2015-05-06 07:27:00,54.1,53.6,29.55,ESE,111,0.0,-999.9,98,-99.99,,,0.00,49.0,meteohub,2015-05-06 12:27:00,
2015-05-06 07:33:00,54.3,53.8,29.55,ESE,113,0.0,-999.9,98,-99.99,,,0.00,51.0,meteohub,2015-05-06 12:33:00,
2015-05-06 07:39:00,54.5,54.0,29.55,ESE,113,0.0,-999.9,98,-99.99,,,0.00,44.0,meteohub,2015-05-06 12:39:00,
2015-05-06 07:45:00,54.7,54.1,29.55,ESE,113,1.0,-999.9,98,-99.99,,,0.00,39.0,meteohub,2015-05-06 12:45:00,
2015-05-06 07:50:00,54.7,54.1,29.55,ESE,113,0.0,-999.9,98,-99.99,,,0.00,83.0,meteohub,2015-05-06 12:50:00,
2015-05-06 07:56:00,54.9,54.3,29.55,ESE,113,0.0,-999.9,98,-99.99,,,0.00,69.0,meteohub,2015-05-06 12:56:00,
2015-05-06 08:02:00,55.0,54.5,29.56,ESE,113,0.0,-999.9,98,-99.99,,,0.00,79.0,meteohub,2015-05-06 13:02:00,
2015-05-06 08:07:00,55.0,54.5,29.55,ESE,113,0.0,-999.9,98,-99.99,,,0.00,116.0,meteohub,2015-05-06 13:07:00,
2015-05-06 08:12:00,55.2,54.7,29.56,ESE,113,0.0,-999.9,98,-99.99,,,0.00,121.0,meteohub,2015-05-06 13:12:00,
2015-05-06 08:17:00,55.2,54.7,29.55,ESE,113,0.0,-999.9,98,-99.99,,,0.00,123.0,meteohub,2015-05-06 13:17:00,
2015-05-06 08:22:00,55.0,54.5,29.56,ESE,113,0.0,-999.9,98,-99.99,,,0.00,137.0,meteohub,2015-05-06 13:22:00,
2015-05-06 08:27:00,55.0,54.5,29.55,ESE,113,0.0,-999.9,98,-99.99,,,0.00,146.0,meteohub,2015-05-06 13:27:00,
2015-05-06 08:32:00,55.2,54.7,29.55,ESE,113,2.0,-999.9,98,-99.99,,,0.00,153.0,meteohub,2015-05-06 13:32:00,
2015-05-06 08:37:00,55.0,54.5,29.55,ESE,113,0.0,-999.9,98,-99.99,,,0.00,204.0,meteohub,2015-05-06 13:37:00,
2015-05-06 08:42:00,55.2,54.7,29.55,ESE,113,0.0,-999.9,98,-99.99,,,0.00,192.0,meteohub,2015-05-06 13:42:00,
2015-05-06 08:47:00,55.2,54.7,29.55,ESE,113,0.0,-999.9,98,-99.99,,,0.00,223.0,meteohub,2015-05-06 13:47:00,
2015-05-06 08:52:00,55.2,54.7,29.55,ESE,113,0.0,-999.9,98,-99.99,,,0.00,292.0,meteohub,2015-05-06 13:52:00,
2015-05-06 08:57:00,55.2,54.7,29.55,ESE,113,0.0,-999.9,98,-99.99,,,0.00,279.0,meteohub,2015-05-06 13:57:00,
2015-05-06 09:02:00,55.2,54.7,29.55,ESE,113,0.0,-999.9,98,-99.99,,,0.00,255.0,meteohub,2015-05-06 14:02:00,
2015-05-06 09:07:00,55.2,54.7,29.55,ESE,113,0.0,-999.9,98,-99.99,,,0.00,269.0,meteohub,2015-05-06 14:07:00,
2015-05-06 09:12:00,55.2,54.7,29.55,ESE,113,0.0,-999.9,98,-99.99,,,0.00,311.0,meteohub,2015-05-06 14:12:00,
2015-05-06 09:17:00,55.2,54.7,29.55,ESE,113,0.0,-999.9,98,-99.99,,,0.00,281.0,meteohub,2015-05-06 14:17:00,
2015-05-06 09:22:00,55.2,54.7,29.55,ESE,113,0.0,-999.9,98,-99.99,,,0.00,221.0,meteohub,2015-05-06 14:22:00,
2015-05-06 09:27:00,55.2,54.7,29.55,ESE,113,0.0,-999.9,98,-99.99,,,0.00,302.0,meteohub,2015-05-06 14:27:00,
2015-05-06 09:32:00,55.2,54.7,29.55,ESE,113,0.0,-999.9,98,-99.99,,,0.00,290.0,meteohub,2015-05-06 14:32:00,
2015-05-06 09:37:00,55.2,54.7,29.55,ESE,113,5.0,-999.9,98,-99.99,,,0.00,309.0,meteohub,2015-05-06 14:37:00,
2015-05-06 09:42:00,55.4,54.9,29.54,ESE,113,4.0,-999.9,98,-99.99,,,0.00,459.0,meteohub,2015-05-06 14:42:00,
2015-05-06 09:47:00,55.6,55.0,29.55,ESE,113,2.0,-999.9,98,-99.99,,,0.00,459.0,meteohub,2015-05-06 14:47:00,
2015-05-06 09:52:00,55.6,55.0,29.55,ESE,113,5.0,-999.9,98,-99.99,,,0.00,534.0,meteohub,2015-05-06 14:52:00,
2015-05-06 09:57:00,55.6,55.0,29.55,ESE,113,0.0,-999.9,98,-99.99,,,0.00,870.0,meteohub,2015-05-06 14:57:00,
2015-05-06 10:02:00,55.8,55.2,29.55,ESE,113,5.0,-999.9,98,-99.99,,,0.00,819.0,meteohub,2015-05-06 15:02:00,
2015-05-06 10:07:00,55.9,55.4,29.55,ESE,113,1.0,-999.9,98,-99.99,,,0.00,789.0,meteohub,2015-05-06 15:07:00,
2015-05-06 10:12:00,55.8,55.2,29.55,ESE,113,2.0,-999.9,98,-99.99,,,0.00,932.0,meteohub,2015-05-06 15:12:00,
2015-05-06 10:17:00,55.9,55.4,29.54,ESE,113,0.0,-999.9,98,-99.99,,,0.00,684.0,meteohub,2015-05-06 15:17:00,
2015-05-06 10:22:00,55.9,55.4,29.55,ESE,113,7.0,-999.9,98,-99.99,,,0.00,838.0,meteohub,2015-05-06 15:22:00,
2015-05-06 10:27:00,55.9,55.4,29.55,ESE,113,2.0,-999.9,98,-99.99,,,0.00,925.0,meteohub,2015-05-06 15:27:00,
2015-05-06 10:32:00,55.9,55.4,29.55,ESE,113,2.0,-999.9,98,-99.99,,,0.00,526.0,meteohub,2015-05-06 15:32:00,
2015-05-06 10:37:00,56.1,55.8,29.54,ESE,113,2.0,-999.9,99,-99.99,,,0.00,916.0,meteohub,2015-05-06 15:37:00,
2015-05-06 10:42:00,56.5,56.1,29.54,ESE,113,0.0,-999.9,99,-99.99,,,0.00,902.0,meteohub,2015-05-06 15:42:00,
2015-05-06 10:47:00,56.5,56.1,29.54,ESE,113,0.0,-999.9,99,-99.99,,,0.00,874.0,meteohub,2015-05-06 15:47:00,
2015-05-06 10:52:00,56.8,56.5,29.54,ESE,113,0.0,-999.9,99,-99.99,,,0.00,868.0,meteohub,2015-05-06 15:52:00,
2015-05-06 10:57:00,57.2,56.8,29.54,ESE,113,0.0,-999.9,99,-99.99,,,0.00,893.0,meteohub,2015-05-06 15:57:00,
2015-05-06 11:02:00,57.6,57.2,29.54,ESE,113,0.0,-999.9,99,-99.99,,,0.00,909.0,meteohub,2015-05-06 16:02:00,
2015-05-06 11:07:00,57.6,57.2,29.54,ESE,113,1.0,-999.9,99,-99.99,,,0.00,891.0,meteohub,2015-05-06 16:07:00,
2015-05-06 11:12:00,57.6,57.2,29.54,ESE,113,0.0,-999.9,99,-99.99,,,0.00,884.0,meteohub,2015-05-06 16:12:00,
2015-05-06 11:17:00,57.7,57.4,29.55,ESE,113,0.0,-999.9,99,-99.99,,,0.00,898.0,meteohub,2015-05-06 16:17:00,
2015-05-06 11:22:00,57.4,57.0,29.55,ESE,113,1.0,-999.9,99,-99.99,,,0.00,835.0,meteohub,2015-05-06 16:22:00,
2015-05-06 11:27:00,57.4,57.0,29.54,ESE,113,2.0,-999.9,99,-99.99,,,0.00,951.0,meteohub,2015-05-06 16:27:00,
2015-05-06 11:32:00,57.7,57.4,29.54,ESE,113,0.0,-999.9,99,-99.99,,,0.00,510.0,meteohub,2015-05-06 16:32:00,
2015-05-06 11:37:00,58.3,57.9,29.54,ESE,113,0.0,-999.9,99,-99.99,,,0.00,997.0,meteohub,2015-05-06 16:37:00,
2015-05-06 11:42:00,58.3,57.9,29.54,ESE,113,0.0,-999.9,99,-99.99,,,0.00,954.0,meteohub,2015-05-06 16:42:00,
2015-05-06 11:47:00,58.5,58.1,29.54,ESE,113,2.0,-999.9,99,-99.99,,,0.00,942.0,meteohub,2015-05-06 16:47:00,
2015-05-06 11:52:00,58.6,58.3,29.53,ESE,113,0.0,-999.9,99,-99.99,,,0.00,970.0,meteohub,2015-05-06 16:52:00,
2015-05-06 11:57:00,58.5,58.1,29.53,ESE,113,2.0,-999.9,99,-99.99,,,0.00,970.0,meteohub,2015-05-06 16:57:00,
2015-05-06 12:02:00,58.3,57.9,29.53,ESE,113,2.0,-999.9,99,-99.99,,,0.00,345.0,meteohub,2015-05-06 17:02:00,
2015-05-06 12:07:00,58.3,57.9,29.53,ESE,113,2.0,-999.9,99,-99.99,,,0.00,519.0,meteohub,2015-05-06 17:07:00,
2015-05-06 12:12:00,58.3,57.7,29.53,ESE,113,1.0,-999.9,98,-99.99,,,0.00,944.0,meteohub,2015-05-06 17:12:00,
2015-05-06 12:17:00,58.5,57.9,29.53,ESE,113,2.0,-999.9,98,-99.99,,,0.00,911.0,meteohub,2015-05-06 17:17:00,
2015-05-06 12:22:00,58.6,58.1,29.53,ESE,113,2.0,-999.9,98,-99.99,,,0.00,893.0,meteohub,2015-05-06 17:22:00,
2015-05-06 12:27:00,59.2,58.6,29.53,ESE,113,6.0,-999.9,98,-99.99,,,0.00,896.0,meteohub,2015-05-06 17:27:00,
2015-05-06 12:32:00,59.2,58.6,29.53,ESE,113,0.0,-999.9,98,-99.99,,,0.00,889.0,meteohub,2015-05-06 17:32:00,
2015-05-06 12:37:00,59.5,59.0,29.52,ESE,113,2.0,-999.9,98,-99.99,,,0.00,891.0,meteohub,2015-05-06 17:37:00,
2015-05-06 12:42:00,59.5,59.0,29.52,ESE,113,0.0,-999.9,98,-99.99,,,0.00,886.0,meteohub,2015-05-06 17:42:00,
2015-05-06 12:47:00,60.1,59.2,29.52,ESE,113,2.0,-999.9,97,-99.99,,,0.00,881.0,meteohub,2015-05-06 17:47:00,
2015-05-06 12:52:00,60.6,59.7,29.52,ESE,113,0.0,-999.9,97,-99.99,,,0.00,877.0,meteohub,2015-05-06 17:52:00,
2015-05-06 12:57:00,61.3,60.4,29.52,ESE,113,4.0,-999.9,97,-99.99,,,0.00,875.0,meteohub,2015-05-06 17:57:00,
2015-05-06 13:02:00,61.3,60.3,29.52,ESE,113,4.0,-999.9,96,-99.99,,,0.00,867.0,meteohub,2015-05-06 18:02:00,
2015-05-06 13:07:00,61.3,59.9,29.52,ESE,113,1.0,-999.9,95,-99.99,,,0.00,861.0,meteohub,2015-05-06 18:07:00,
2015-05-06 13:12:00,61.2,59.4,29.52,ESE,113,2.0,-999.9,94,-99.99,,,0.00,853.0,meteohub,2015-05-06 18:12:00,
2015-05-06 13:17:00,61.2,59.4,29.52,ESE,113,0.0,-999.9,94,-99.99,,,0.00,847.0,meteohub,2015-05-06 18:17:00,
2015-05-06 13:22:00,61.0,59.0,29.52,ESE,113,0.0,-999.9,93,-99.99,,,0.00,837.0,meteohub,2015-05-06 18:22:00,
2015-05-06 13:27:00,61.0,59.0,29.52,ESE,113,0.0,-999.9,93,-99.99,,,0.00,830.0,meteohub,2015-05-06 18:27:00,
2015-05-06 13:32:00,61.3,59.4,29.52,ESE,113,0.0,-999.9,93,-99.99,,,0.00,828.0,meteohub,2015-05-06 18:32:00,
2015-05-06 13:37:00,61.5,59.5,29.51,ESE,113,0.0,-999.9,93,-99.99,,,0.00,821.0,meteohub,2015-05-06 18:37:00,
2015-05-06 13:42:00,61.9,59.9,29.51,ESE,113,0.0,-999.9,93,-99.99,,,0.00,810.0,meteohub,2015-05-06 18:42:00,
2015-05-06 13:47:00,62.1,59.7,29.51,ESE,113,0.0,-999.9,92,-99.99,,,0.00,800.0,meteohub,2015-05-06 18:47:00,
2015-05-06 13:52:00,62.1,59.7,29.51,ESE,113,0.0,-999.9,92,-99.99,,,0.00,782.0,meteohub,2015-05-06 18:52:00,
2015-05-06 13:57:00,62.2,59.9,29.51,ESE,113,0.0,-999.9,92,-99.99,,,0.00,773.0,meteohub,2015-05-06 18:57:00,
2015-05-06 14:02:00,63.0,60.6,29.51,ESE,113,0.0,-999.9,92,-99.99,,,0.00,772.0,meteohub,2015-05-06 19:02:00,
2015-05-06 14:07:00,63.1,60.4,29.50,ESE,113,0.0,-999.9,91,-99.99,,,0.00,761.0,meteohub,2015-05-06 19:07:00,
2015-05-06 14:12:00,63.0,59.9,29.51,ESE,113,0.0,-999.9,90,-99.99,,,0.00,751.0,meteohub,2015-05-06 19:12:00,
2015-05-06 14:17:00,62.2,59.0,29.50,ESE,113,2.0,-999.9,89,-99.99,,,0.00,742.0,meteohub,2015-05-06 19:17:00,
2015-05-06 14:22:00,61.7,58.5,29.50,ESE,113,5.0,-999.9,89,-99.99,,,0.00,719.0,meteohub,2015-05-06 19:22:00,
2015-05-06 14:27:00,61.2,57.6,29.50,East,91,2.0,-999.9,88,-99.99,,,0.00,721.0,meteohub,2015-05-06 19:27:00,
2015-05-06 14:32:00,61.0,57.7,29.49,ENE,76,5.0,-999.9,89,-99.99,,,0.00,705.0,meteohub,2015-05-06 19:32:00,
2015-05-06 14:37:00,60.8,57.6,29.49,ENE,74,0.0,-999.9,89,-99.99,,,0.00,689.0,meteohub,2015-05-06 19:37:00,
2015-05-06 14:43:00,61.0,57.7,29.49,ENE,74,0.0,-999.9,89,-99.99,,,0.00,686.0,meteohub,2015-05-06 19:43:00,
2015-05-06 14:48:00,60.6,57.0,29.49,ENE,72,0.0,-999.9,88,-99.99,,,0.00,668.0,meteohub,2015-05-06 19:48:00,
2015-05-06 14:57:00,61.0,57.7,29.49,ENE,71,0.0,-999.9,89,-99.99,,,0.00,649.0,meteohub,2015-05-06 19:57:00,
2015-05-06 15:02:00,61.0,57.7,29.48,ENE,69,2.0,-999.9,89,-99.99,,,0.00,640.0,meteohub,2015-05-06 20:02:00,
2015-05-06 15:07:00,60.6,57.0,29.49,ENE,69,0.0,-999.9,88,-99.99,,,0.00,628.0,meteohub,2015-05-06 20:07:00,